Location: Glens Falls
(43.3090°N, 73.6440°W)
Time: 08:06:11
(UTC-04:00)

CZ-2D R/B - Pass Details

Date: 24 February 2018
Orbit: 523 x 540 km, 97.5° (Epoch: 18 June)

Event Time Altitude Azimuth Distance (km) Brightness Sun altitude
Exits shadow 18:52:17 - 152° (SSE) 2,293 6.2 -14.4°
Reaches altitude 10° 18:53:30 10° 149° (SSE) 1,798 5.6 -14.6°
Maximum altitude 18:57:15 50° 74° (ENE) 691 3.4 -15.3°
Drops below altitude 10° 19:01:03 10° 358° (N) 1,809 6.0 -16.0°
Sets 19:03:13 0° 353° (N) 2,704 7.0 -16.4°
